Airfield :
LOGIN :

Register | Disclaimer

   EN    FR    IT 

 










Legend :    VFR   Marginal VFR   IFR   Intensive IFR   Very Intensive IFR
Visi :
Ceiling :
>= 8 km
>= 3000ft
5 to 8 km
1000 to 3000 ft
1500m to 5 km
500 to 1000 ft
800 to 1500m
200 to 500 ft
< 800m
< 200 ft
Symbols :   Thunderstorms  Fog  Heavy snow  Heavy precipitations  Wind > 20 kt
SIGMETs :     Misc.  Thunderstorms  Icing  Turbulence  Mountain Waves  Volcanic Ashes







- Airport Elevation : 100 ft
- IATA code : DCI


LIED - Decimomannu Air Base

CURRENT METAR :
  • 182255Z 02002KT 9999 FEW010 08/06 Q1017 RMK FEW VIS MIN 9999 WIND THR35 01002KT WIND THR17 /////KT BLU

EXPIRED METARs :
  • 182155Z 30002KT 9999 FEW020 09/07 Q1016 RMK FEW VIS MIN 9999 WIND THR35 30002KT WIND THR17 /////KT BLU
  • 182055Z 02004KT 9999 FEW020 09/07 Q1016 RMK FEW VIS MIN 9999 WIND THR35 22003KT WIND THR17 /////KT BLU

TAF TAF LIED
Valid from the 18 at 21:00 until the 19 at 06:00 UTC


182000Z 1821/1906 VRB05KT 9999 FEW005
TEMPO 1902/1906 3000 BR SCT005
No reported NOTAMs for that airfield.



MET'MAP, your aeronautical weather chart ! - Copyright ORBIFLY December 2007 - Disclaimer

ORBIFLY MET'MAP TEAM :

Programming & Development : Alexandra Zaïnal
Concept & Development : Baudouin d'Aumeries
Co-Development & Prog : Marc-Olivier Méhu
Technical & hardware support : Manuel Goepfert

Contact : metmap@orbifly.com




SOURCES & CREDITS :

   NOAA